STARLINK-5365, 55498

Orbit data source: Space-Track

STARLINK-5365, 55498 is a payload satellite owned by SpaceX/Seattle (US) in LEO that was launched on Thu, 02 Feb 2023 UTC via an FALCON 9 launch vehicle from the Air Force Eastern Test Range (AFETR). Payload-class satellites include a variety of spacecraft equipped with specific instruments for various scientific and technological missions. These include communications satellites like Starlink; space stations such as the ISS; scientific satellites like the Hubble; Earth observation satellites from companies like Planet Labs, Umbra, and HawkEye 360; GPS; miniature CubeSats for education and research; and military/defense satellites.

Loading next visibility...
Identifier
55498, 2023-015BB
Orbit
LEO
Country
Flag of USUS
Related business
Manufacturer
SpaceX/Seattle
Mission
Operational Commercial Communications
Bus & Motor
STARLINK, Unknown motor
Mass
305 kg wet, ~290 kg dry
Launch date (UTC)
2023-02-02 (3 years ago)
Launch vehicle
FALCON 9
Launch site
Air Force Eastern Test Range (AFETR)
Object type
Payload
Rocket body
Debris
Shape & HBR
Box + 1 Pan, 10.1 m
Radar Cross Section
13.562 m², Large (>1 m²)

Expand to show TLE details & history
Last TLE update: 11 hours ago

TLE from 11 hours ago
0 STARLINK-5365
1 55498U 23015BB  25288.66589314  .00000406  00000-0  45111-4 0  9995
2 55498  43.0054  46.5622 0001190 270.5810  89.4896 15.02537840148796
Epoch: 2025-10-15T15:58Z
TLE epoch observation values (Epoch: 2025-10-15T15:58:53.167Z)
Latitude
-0.00001°
Longitude
142.40396°
Altitude
558.845 km
Speed
7.584 km/s
True Right ascension
03h 06m 14s
True Declination
0° 00' 00"
Sunlit
Object was in full shadow at epoch
Visualization orbit readout
Latitude
Unknown
Longitude
Unknown
Altitude
Unknown
Speed
Unknown
Apparent Right ascension
Unknown
Apparent Declination
Unknown
Sunlit
N/A
Visualization observer readout
Local Sidereal Time
21:58:58
Azimuth
Unknown
Elevation
Unknown
Doppler factor
Unknown
Orbital elements
Apogee altitude
561.823 km
Perigee altitude
560.171 km
Semi-major axis
6,939.134 km
Eccentricity
0.00012
Inclination
43.0054°
RAAN
46.5622°
Arg. of periapsis
270.581°
True anomaly
89.50324°
Mean anomaly
89.4896°
Eccentric anomaly
89.49642°
Mean motion
3.75479 °/min
Orbital period
95.88 mins
BSTAR
0.000045111
Loading maneuver chart data...
Computing Atmospheric mass density...
Loading historical data...
Loading historical data...
Loading historical data...
Loading historical data...
Loading historical data...
Loading historical data...
Loading historical data...

Documentation

Showing up to 5 results
|